User: anonymous   Login
Location: Unspecified
(0.0000°N, 0.0000°E)
Time: 18:15:19
(UTC+00:00)
Language:

NOSS 2-1 (E) - Orbit

View from above orbital plane
View from above orbital plane
View from above satellite
View from above satellite

Ground track
Ground track

The orbit data is extracted from the following two-line orbital elements,

1 20642U 90050E   19077.78282620 0.00000250  00000-0  49230-4 0    09
2 20642  63.3344 336.2628 0835003  37.2417 322.7583 13.41864175    02
Epoch (UTC): 18 March 2019 18:47:16
Eccentricity: 0.0835003
inclination: 63.3344°
perigee height: 478 km
apogee height: 1727 km
right ascension of ascending node: 336.2628°
argument of perigee: 37.2417°
revolutions per day: 13.41864175
mean anomaly at epoch: 322.7583°
orbit number at epoch: 0

The dashed part of the orbit path shows where the satellite is in the earth's shadow,  

DLR